Satellite: AO-40 Catalog number: 26609 Epoch time: 02193.96194444 Element set: 238 Inclination: 7.5231 deg RA of node: 105.2378 deg Eccentricity: 0.7920927 Arg of perigee: 68.2239 deg Mean anomaly: 353.4822 deg Mean motion: 1.25596657 rev/day Decay rate: -1.77000e-06 rev/day^2 Epoch rev: 781 Checksum: 321